sat.trackr.live / text

‹ back to catalog

STARLINK-3639

NORAD 51789 · 2022-017X

PAYLOAD ACTIVE UNKNOWN

§ Identity

Operator
Country
US
Launch date
2022-02-25
Launch site
AFWTR
Launch vehicle
Mass (kg)
RCS (m²)

Purposes: comms

External: N2YO · Heavens-Above · Gunter

§ Orbital elements

Epoch: 2026-05-24T21:39:55.795104Z

Period
95.44 min
Inclination
53.2137°
Eccentricity
0.0001583
Mean motion
15.08838901 rev/d
Perigee alt
538.7 km
Apogee alt
540.8 km
Semi-major
6,917.9 km
B*
-3.7669e-5
RAAN
6.9857°
Arg perigee
89.5490°
Mean anomaly
270.5683°
Rev number
23,378

§ Raw data

STARLINK-36391 51789U 22017X   26144.90272911 -.00000887  00000+0 -37669-4 0  99992 51789  53.2137   6.9857 0001583  89.5490 270.5683 15.08838901233787

JSON: /api/v1/satellites/51789 · /tle

For live sub-satellite position, see the globe view (requires WebGL).

§ Visibility from observer

Set your observer location to see the next 7 days of passes ≥ 10°. The values pass through the URL so the page stays shareable.

No JS? Fill the form by hand. The geolocation button needs JavaScript.